Weather History for KGLE - September, 2013

Change the Weather History Date:

Saturday, September 14, 2013

  Actual Average (KDTO) Record (KDTO)
Temperature  
Mean Temperature 80 °F -  
Max Temperature 90 °F 87 °F 99 °F (2000)
Min Temperature 70 °F 64 °F 54 °F (2006)
Cooling Degree Days 15    
Growing Degree Days 30 (Base 50)    
Moisture  
Dew Point 61 °F    
Average Humidity 56    
Maximum Humidity 83    
Minimum Humidity 35    
Precipitation  
Precipitation 0.00 in - - ()
Sea Level Pressure  
Sea Level Pressure 29.97 in    
Wind  
Wind Speed 9 mph (East)    
Max Wind Speed 15 mph    
Max Gust Speed 21 mph    
Visibility 10 miles    
Events      
Averages and records for this station are not official NWS values.
T = Trace of Precipitation, MM = Missing Value Source: NWS Daily Summary

Daily Weather History Graph

Daily Weather History Graph

Search for Another Location

Airport or City:

Trip Planner

Search our weather history database for the weather conditions in past years. The results will help you decide how hot, cold, wet, or windy it might be!

Date:

Astronomy

Sep. 14, 2013 Rise Set
Actual Time 7:11 AM CDT 7:36 PM CDT
Civil Twilight 6:46 AM CDT 8:01 PM CDT
Nautical Twilight 6:17 AM CDT 8:30 PM CDT
Astronomical Twilight 5:47 AM CDT 9:00 PM CDT
Moon 4:08 PM CDT (9/14) 1:56 AM CDT (9/14)
Length of Visible Light 13h 14m
Length of Day
12h 24m
Waxing Gibbous, 72% of the Moon is Illuminated
Sep 14
Waxing Gibbous
Sep 19
Full
Sep 26
Last Quarter
Oct 4
New
Oct 11
First Quarter

Hourly Weather History & Observations

Time (CDT) Temp. Heat Index Dew Point Humidity Pressure Visibility Wind Dir Wind Speed Gust Speed Precip Events Conditions
12:15 AM 75.7 °F - 68.0 °F 77% 29.97 in 10.0 mi East 10.4 mph - N/A   Scattered Clouds
12:35 AM 73.4 °F - 68.0 °F 83% 29.97 in 10.0 mi East 10.4 mph - N/A   Clear
12:55 AM 73.4 °F - 67.3 °F 81% 29.97 in 10.0 mi ENE 6.9 mph - N/A   Clear
1:15 AM 73.4 °F - 67.1 °F 81% 29.96 in 10.0 mi East 8.1 mph - N/A   Scattered Clouds
1:35 AM 73.9 °F - 66.6 °F 78% 29.96 in 10.0 mi ENE 6.9 mph - N/A   Scattered Clouds
1:55 AM 73.9 °F - 66.4 °F 77% 29.96 in 10.0 mi ENE 5.8 mph - N/A   Clear
2:15 AM 74.7 °F - 66.6 °F 76% 29.96 in 10.0 mi ENE 5.8 mph - N/A   Clear
2:35 AM 73.9 °F - 66.2 °F 77% 29.96 in 10.0 mi ENE 4.6 mph - N/A   Clear
2:55 AM 73.4 °F - 65.7 °F 77% 29.96 in 10.0 mi ENE 5.8 mph - N/A   Clear
3:15 AM 73.8 °F - 65.7 °F 76% 29.96 in 10.0 mi ENE 4.6 mph - N/A   Clear
3:35 AM 73.4 °F - 65.3 °F 76% 29.95 in 10.0 mi ENE 5.8 mph - N/A   Clear
3:55 AM 73.4 °F - 65.7 °F 77% 29.95 in 10.0 mi ENE 8.1 mph - N/A   Scattered Clouds
4:15 AM 73.4 °F - 66.4 °F 79% 29.95 in 10.0 mi ENE 5.8 mph - N/A   Scattered Clouds
4:35 AM 73.4 °F - 67.1 °F 81% 29.96 in 10.0 mi ENE 5.8 mph - N/A   Scattered Clouds
4:55 AM 73.4 °F - 67.3 °F 81% 29.96 in 10.0 mi East 6.9 mph - N/A   Scattered Clouds
5:15 AM 72.0 °F - 66.2 °F 82% 29.96 in 10.0 mi East 6.9 mph - N/A   Scattered Clouds
5:35 AM 70.9 °F - 64.4 °F 80% 29.96 in 10.0 mi East 8.1 mph - N/A   Clear
5:55 AM 70.9 °F - 63.9 °F 78% 29.96 in 10.0 mi East 9.2 mph - N/A   Clear
6:15 AM 70.9 °F - 63.5 °F 77% 29.97 in 10.0 mi East 9.2 mph - N/A   Clear
6:35 AM 70.9 °F - 62.6 °F 75% 29.98 in 10.0 mi East 6.9 mph - N/A   Clear
6:55 AM 70.9 °F - 62.4 °F 75% 29.98 in 10.0 mi ENE 8.1 mph - N/A   Clear
7:15 AM 70.9 °F - 61.7 °F 73% 29.99 in 10.0 mi ENE 8.1 mph - N/A   Clear
7:35 AM 70.9 °F - 61.0 °F 71% 29.99 in 10.0 mi East 9.2 mph - N/A   Clear
7:55 AM 70.9 °F - 59.7 °F 68% 30.00 in 10.0 mi East 9.2 mph - N/A   Clear
8:15 AM 70.9 °F - 57.9 °F 63% 30.01 in 10.0 mi East 10.4 mph - N/A   Clear
8:35 AM 70.9 °F - 57.4 °F 62% 30.01 in 10.0 mi East 12.7 mph - N/A   Clear
8:55 AM 70.9 °F - 56.5 °F 60% 30.01 in 10.0 mi East 10.4 mph - N/A   Clear
9:15 AM 73.0 °F - 57.4 °F 58% 30.02 in 10.0 mi East 13.8 mph - N/A   Clear
9:35 AM 73.4 °F - 56.5 °F 55% 30.02 in 10.0 mi East 11.5 mph 17.3 mph N/A   Clear
9:55 AM 73.4 °F - 55.2 °F 53% 30.02 in 10.0 mi East 13.8 mph - N/A   Clear
10:15 AM 75.2 °F - 55.9 °F 51% 30.03 in 10.0 mi ESE 15.0 mph 20.7 mph N/A   Clear
10:35 AM 75.7 °F - 54.7 °F 48% 30.03 in 10.0 mi East 13.8 mph - N/A   Clear
10:55 AM 76.5 °F - 55.0 °F 47% 30.03 in 10.0 mi ESE 11.5 mph - N/A   Clear
11:15 AM 78.3 °F - 55.6 °F 45% 30.03 in 3.0 mi ESE 13.8 mph - N/A   Haze
11:35 AM 78.8 °F - 55.9 °F 45% 30.02 in 10.0 mi East 10.4 mph - N/A   Clear
11:55 AM 80.1 °F 80.4 °F 56.7 °F 45% 30.02 in 10.0 mi ESE 10.4 mph - N/A   Clear
12:15 PM 80.8 °F 80.9 °F 57.2 °F 44% 30.02 in 10.0 mi ESE 11.5 mph - N/A   Clear
12:35 PM 84.7 °F 84.6 °F 59.7 °F 43% 30.01 in 10.0 mi East 9.2 mph - N/A   Clear
12:55 PM 86.0 °F 85.9 °F 60.6 °F 42% 30.01 in 10.0 mi ESE 9.2 mph 16.1 mph N/A   Clear
1:15 PM 86.0 °F 85.9 °F 60.3 °F 42% 30.00 in 10.0 mi ESE 10.4 mph - N/A   Clear
1:35 PM 86.0 °F 85.4 °F 59.4 °F 40% 30.00 in 10.0 mi East 5.8 mph - N/A   Clear
1:55 PM 86.0 °F 85.2 °F 58.6 °F 39% 29.98 in 10.0 mi ESE 11.5 mph - N/A   Clear
2:15 PM 86.7 °F 86.1 °F 59.0 °F 39% 29.98 in 10.0 mi ESE 8.1 mph - N/A   Clear
2:35 PM 88.3 °F 87.8 °F 59.7 °F 38% 29.97 in 10.0 mi East 8.1 mph - N/A   Clear
2:55 PM 88.7 °F 88.0 °F 59.4 °F 37% 29.96 in 10.0 mi ESE 11.5 mph 16.1 mph N/A   Clear
3:15 PM 90.0 °F 89.7 °F 60.3 °F 37% 29.95 in 10.0 mi ESE 9.2 mph - N/A   Clear
3:35 PM 90.9 °F 90.6 °F 60.8 °F 36% 29.94 in 10.0 mi ESE 9.2 mph - N/A   Clear
3:55 PM 90.9 °F 90.6 °F 60.8 °F 36% 29.94 in 10.0 mi East 9.2 mph - N/A   Clear
4:15 PM 90.9 °F 90.3 °F 60.1 °F 35% 29.93 in 10.0 mi ESE 11.5 mph 17.3 mph N/A   Clear
4:35 PM 90.9 °F 90.3 °F 59.9 °F 35% 29.92 in 10.0 mi East 11.5 mph 17.3 mph N/A   Clear
4:55 PM 90.9 °F 90.6 °F 60.3 °F 36% 29.92 in 10.0 mi East 9.2 mph - N/A   Clear
5:15 PM 90.9 °F 90.6 °F 60.6 °F 36% 29.92 in 10.0 mi ESE 8.1 mph - N/A   Clear
5:35 PM 90.9 °F 90.9 °F 61.0 °F 37% 29.92 in 10.0 mi East 10.4 mph - N/A   Clear
5:55 PM 90.9 °F 90.9 °F 61.0 °F 37% 29.92 in 10.0 mi East 9.2 mph - N/A   Clear
6:15 PM 90.1 °F 89.9 °F 60.3 °F 37% 29.92 in 10.0 mi East 10.4 mph 18.4 mph N/A   Clear
6:35 PM 88.3 °F 87.6 °F 59.4 °F 37% 29.92 in 10.0 mi East 11.5 mph - N/A   Clear
6:55 PM 86.9 °F 86.3 °F 59.0 °F 39% 29.92 in 10.0 mi East 12.7 mph 17.3 mph N/A   Clear
7:15 PM 86.0 °F 85.2 °F 58.5 °F 39% 29.93 in 10.0 mi East 6.9 mph - N/A   Clear
7:35 PM 86.0 °F 85.9 °F 60.3 °F 42% 29.93 in 10.0 mi East 9.2 mph - N/A   Clear
7:55 PM 86.0 °F 86.3 °F 61.7 °F 44% 29.94 in 10.0 mi East 6.9 mph - N/A   Clear
8:15 PM 83.1 °F 83.5 °F 60.8 °F 47% 29.95 in 10.0 mi East 5.8 mph - N/A   Clear
8:35 PM 80.1 °F 80.7 °F 59.0 °F 48% 29.95 in 10.0 mi East 6.9 mph - N/A   Clear
8:55 PM 79.7 °F - 59.0 °F 49% 29.96 in 10.0 mi East 6.9 mph - N/A   Clear
9:15 PM 79.0 °F - 59.0 °F 50% 29.96 in 10.0 mi East 8.1 mph - N/A   Clear
9:35 PM 78.3 °F - 59.2 °F 52% 29.97 in 10.0 mi East 6.9 mph - N/A   Clear
9:55 PM 78.3 °F - 59.9 °F 53% 29.98 in 10.0 mi East 6.9 mph - N/A   Clear
10:15 PM 77.5 °F - 59.5 °F 54% 29.98 in 10.0 mi East 6.9 mph - N/A   Clear
10:35 PM 77.0 °F - 59.5 °F 55% 29.98 in 10.0 mi East 6.9 mph - N/A   Clear
10:55 PM 75.7 °F - 59.5 °F 57% 29.99 in 10.0 mi East 6.9 mph - N/A   Clear
11:15 PM 75.7 °F - 59.7 °F 57% 29.99 in 10.0 mi East 6.9 mph - N/A   Clear
11:35 PM 75.7 °F - 60.1 °F 58% 29.99 in 10.0 mi East 6.9 mph - N/A   Clear
11:55 PM 75.7 °F - 60.1 °F 58% 29.99 in 10.0 mi East 8.1 mph - N/A   Clear